Montpelier, VT

7:59 PM EDT on June 25, 2017 (GMT -0400)
Knapp State

Weather History for KMPV - November, 2014

Change the Weather History Date:

Sunday, November 30, 2014

  Actual Average Record
Temperature  
Mean Temperature 33 °F 30 °F  
Max Temperature 42 °F 38 °F 66 °F (2006)
Min Temperature 24 °F 22 °F -5 °F (1958)
Degree Days  
Heating Degree Days 32 35  
Month to date heating degree days 936 889  
Since 1 July heating degree days 1818 1846  
Cooling Degree Days 0 0  
Month to date cooling degree days 0 0  
Year to date cooling degree days 188 264  
Moisture  
Dew Point 29 °F    
Average Humidity 77    
Maximum Humidity 85    
Minimum Humidity 68    
Precipitation  
Precipitation 0.01 in 0.10 in 0.86 in (1987)
Month to date precipitation 1.77 3.17  
Year to date precipitation 32.79 34.53  
Sea Level Pressure  
Sea Level Pressure 30.04 in    
Wind  
Wind Speed 7 mph (South)    
Max Wind Speed 16 mph    
Max Gust Speed 21 mph    
Visibility 10 miles    
Events Rain    
T = Trace of Precipitation, MM = Missing Value Source: NWS Daily Summary

Daily Weather History Graph

Daily Weather History Graph

Search for Another Location

Airport or City:

Trip Planner

Search our weather history database for the weather conditions in past years. The results will help you decide how hot, cold, wet, or windy it might be!

Date:

Astronomy

Nov. 30, 2014 Rise Set
Actual Time 7:04 AM EST 4:13 PM EST
Civil Twilight 6:31 AM EST 4:45 PM EST
Nautical Twilight 5:55 AM EST 5:21 PM EST
Astronomical Twilight 5:21 AM EST 5:56 PM EST
Moon 12:54 PM EST (11/30) 12:18 AM EST (11/30)
Length of Visible Light 10h 13m
Length of Day
9h 08m
Waxing Gibbous, 64% of the Moon is Illuminated
Nov 30
Waxing Gibbous
Dec 6
Full
Dec 14
Last Quarter
Dec 21
New
Dec 28
First Quarter

Hourly Weather History & Observations

Time (EST) Temp. Windchill Dew Point Humidity Pressure Visibility Wind Dir Wind Speed Gust Speed Precip Events Conditions
12:51 AM 25.0 °F 18.1 °F 17.1 °F 72% 30.16 in 10.0 mi SSW 5.8 mph - N/A   Overcast
1:51 AM 25.0 °F 20.7 °F 18.0 °F 75% 30.17 in 10.0 mi Variable 3.5 mph - N/A   Overcast
2:51 AM 26.1 °F 17.6 °F 19.0 °F 75% 30.15 in 10.0 mi South 8.1 mph - N/A   Overcast
3:27 AM 26.1 °F - 19.9 °F 78% 30.09 in 8.0 mi Calm Calm - 0.00 in   Overcast
3:51 AM 27.0 °F 20.5 °F 19.9 °F 75% 30.14 in 10.0 mi South 5.8 mph - 0.00 in   Overcast
4:15 AM 27.0 °F 19.5 °F 21.0 °F 78% 30.08 in 9.0 mi South 6.9 mph - N/A   Overcast
4:51 AM 27.0 °F 20.5 °F 21.9 °F 81% 30.12 in 10.0 mi South 5.8 mph - N/A   Overcast
5:51 AM 28.0 °F - 23.0 °F 81% 30.12 in 10.0 mi Calm Calm - N/A   Overcast
6:51 AM 28.9 °F 20.4 °F 25.0 °F 85% 30.10 in 10.0 mi South 9.2 mph - N/A   Overcast
7:51 AM 30.0 °F 23.2 °F 25.0 °F 82% 30.10 in 9.0 mi South 6.9 mph - N/A   Overcast
8:23 AM 28.9 °F 25.2 °F 26.1 °F 89% 30.05 in 9.0 mi NW 3.5 mph - N/A   Overcast
8:41 AM 30.0 °F - 26.1 °F 85% 30.05 in 8.0 mi Calm Calm - N/A   Overcast
8:51 AM 32.0 °F 26.4 °F 26.1 °F 79% 30.10 in 9.0 mi South 5.8 mph - N/A   Overcast
9:51 AM 34.0 °F 27.2 °F 28.0 °F 79% 30.09 in 10.0 mi South 8.1 mph - N/A   Overcast
10:51 AM 36.0 °F 32.1 °F 28.9 °F 76% 30.06 in 10.0 mi South 4.6 mph - N/A   Overcast
11:51 AM 37.0 °F 32.4 °F 30.0 °F 76% 30.04 in 10.0 mi South 5.8 mph - N/A   Overcast
12:51 PM 37.9 °F 30.9 °F 30.9 °F 76% 30.00 in 10.0 mi SSE 10.4 mph - N/A   Overcast
1:51 PM 39.0 °F 32.3 °F 32.0 °F 76% 30.00 in 10.0 mi South 10.4 mph - N/A   Overcast
2:25 PM 37.9 °F 30.9 °F 32.0 °F 79% 29.95 in 9.0 mi SSE 10.4 mph - N/A   Overcast
2:51 PM 39.0 °F 32.8 °F 32.0 °F 76% 30.00 in 9.0 mi SSW 9.2 mph - N/A   Overcast
3:51 PM 39.0 °F 32.8 °F 32.0 °F 76% 29.99 in 10.0 mi South 9.2 mph - N/A   Overcast
4:15 PM 39.0 °F - 33.1 °F 79% 29.96 in 10.0 mi Calm Calm - N/A   Overcast
4:51 PM 39.0 °F 34.0 °F 33.1 °F 79% 30.01 in 10.0 mi SW 6.9 mph - N/A   Overcast
5:51 PM 39.0 °F 31.4 °F 33.1 °F 79% 30.01 in 10.0 mi South 12.7 mph - N/A   Overcast
6:51 PM 39.0 °F 33.4 °F 34.0 °F 82% 30.01 in 10.0 mi SSW 8.1 mph - N/A   Overcast
7:51 PM 39.9 °F 34.5 °F 34.0 °F 79% 30.00 in 10.0 mi South 8.1 mph - N/A   Overcast
8:51 PM 41.0 °F 37.1 °F 35.1 °F 79% 29.98 in 10.0 mi South 5.8 mph - N/A   Overcast
9:03 PM 39.9 °F 35.1 °F 35.1 °F 83% 29.94 in 10.0 mi South 6.9 mph - N/A   Unknown
9:51 PM 42.1 °F 36.1 °F 36.0 °F 79% 29.96 in 10.0 mi South 10.4 mph - N/A   Overcast
10:51 PM 42.1 °F 36.6 °F 36.0 °F 79% 29.96 in 8.0 mi South 9.2 mph - 0.00 in Rain Light Rain
11:09 PM 39.0 °F 35.7 °F 36.0 °F 89% 29.94 in 7.0 mi South 4.6 mph - 0.00 in Rain Light Rain
11:51 PM 39.9 °F 35.8 °F 39.0 °F 97% 29.96 in 8.0 mi South 5.8 mph - 0.01 in   Overcast